Leadville, CO

10:59 PM MST on November 14, 2019 (GMT -0700)
Lake County

Weather History for KLXV - September, 2019

Change the Weather History Date:

Monday, September 2, 2019

  Actual Average Record
Temperature  
Mean Temperature 57 °F -  
Max Temperature 79 °F 65 °F 79 °F (2019)
Min Temperature 35 °F 34 °F 26 °F (1989)
Degree Days  
Heating Degree Days 8 15  
Month to date heating degree days 15 30  
Since 1 July heating degree days 608 752  
Cooling Degree Days 0 0  
Month to date cooling degree days 0 0  
Year to date cooling degree days 0 0  
Growing Degree Days 8 (Base 50)    
Moisture  
Dew Point 23 °F    
Average Humidity 35    
Maximum Humidity 59    
Minimum Humidity 11    
Precipitation  
Precipitation 0.00 in 0.05 in 0.36 in (2013)
Month to date precipitation 0.00 0.10  
Year to date precipitation 12.54 9.05  
Sea Level Pressure  
Sea Level Pressure 30.03 in    
Wind  
Wind Speed 6 mph (North)    
Max Wind Speed 16 mph    
Max Gust Speed 25 mph    
Visibility 10 miles    
Events      
T = Trace of Precipitation, MM = Missing Value Source: NWS Daily Summary

Daily Weather History Graph

Daily Weather History Graph

Search for Another Location

Airport or City:

Astronomy

Sep. 02, 2019 Rise Set
Actual Time 6:34 AM MDT 7:34 PM MDT
Civil Twilight 6:07 AM MDT 8:01 PM MDT
Nautical Twilight 5:34 AM MDT 8:34 PM MDT
Astronomical Twilight 5:00 AM MDT 9:08 PM MDT
Moon 10:18 AM MDT (9/2) 9:59 PM MDT (9/2)
Length of Visible Light 13h 54m
Length of Day
12h 59m
Waxing Crescent, 16% of the Moon is Illuminated
Sep 2
Waxing Crescent
Sep 5
First Quarter
Sep 13
Full
Sep 21
Last Quarter
Sep 28
New

Hourly Weather History & Observations

Time (MDT) Temp. Windchill Dew Point Humidity Pressure Visibility Wind Dir Wind Speed Gust Speed Precip Events Conditions
12:53 AM 48.9 °F - 27.0 °F 43% 30.01 in 10.0 mi Calm Calm - N/A   Clear
1:53 AM 48.9 °F - 28.9 °F 46% 30.03 in 10.0 mi East 3.5 mph - N/A   Clear
2:53 AM 48.0 °F - 28.0 °F 46% 30.03 in 10.0 mi Calm Calm - N/A   Clear
3:53 AM 41.0 °F 38.0 °F 27.0 °F 57% 30.04 in 10.0 mi NNE 4.6 mph - N/A   Clear
4:53 AM 46.9 °F - 27.0 °F 46% 30.00 in 10.0 mi Calm Calm - N/A   Clear
5:53 AM 43.0 °F - 27.0 °F 53% 30.04 in 10.0 mi Calm Calm - N/A   Clear
6:53 AM 39.9 °F - 26.1 °F 58% 30.09 in 10.0 mi Calm Calm - N/A   Clear
7:53 AM 46.0 °F - 28.0 °F 50% 30.12 in 9.0 mi Calm Calm - N/A   Clear
8:53 AM 55.9 °F - 30.0 °F 37% 30.09 in 10.0 mi Calm Calm - N/A   Clear
9:53 AM 63.0 °F - 28.0 °F 27% 30.07 in 10.0 mi South 4.6 mph - N/A   Clear
10:53 AM 71.1 °F - 23.0 °F 16% 30.02 in 10.0 mi NNW 8.1 mph 16.1 mph N/A   Clear
11:53 AM 73.0 °F - 19.0 °F 13% 30.01 in 10.0 mi Variable 6.9 mph 20.7 mph N/A   Partly Cloudy
12:53 PM 75.0 °F - 19.9 °F 13% 29.99 in 10.0 mi NNW 8.1 mph 19.6 mph N/A   Clear
1:16 PM 73.9 °F - 19.0 °F 13% 30.56 in 10.0 mi West 12.7 mph 20.7 mph N/A   Partly Cloudy
1:53 PM 73.9 °F - 18.0 °F 12% 29.98 in 10.0 mi Variable 3.5 mph 24.2 mph N/A   Clear
2:53 PM 73.0 °F - 19.0 °F 13% 29.97 in 10.0 mi Variable 6.9 mph 18.4 mph N/A   Scattered Clouds
3:53 PM 78.1 °F - 19.0 °F 11% 29.97 in 10.0 mi NW 12.7 mph 23.0 mph N/A   Scattered Clouds
4:53 PM 77.0 °F - 19.9 °F 12% 29.94 in 10.0 mi NW 10.4 mph 21.9 mph N/A   Scattered Clouds
5:53 PM 75.9 °F - 19.0 °F 12% 29.95 in 10.0 mi WNW 12.7 mph - N/A   Clear
6:53 PM 72.0 °F - 21.0 °F 15% 29.99 in 10.0 mi NW 9.2 mph - N/A   Clear
7:53 PM 64.9 °F - 23.0 °F 20% 30.00 in 10.0 mi North 8.1 mph - N/A   Clear
8:53 PM 55.0 °F - 21.9 °F 28% 30.03 in 10.0 mi ENE 8.1 mph - N/A   Clear
9:53 PM 55.9 °F - 21.0 °F 26% 29.99 in 10.0 mi East 6.9 mph - N/A   Clear
10:53 PM 53.1 °F - 21.0 °F 29% 29.97 in 10.0 mi East 5.8 mph - N/A   Clear
11:53 PM 48.9 °F - 21.0 °F 33% 29.98 in 10.0 mi ENE 6.9 mph - N/A   Clear